This is the latest recevied weather packets stored in our database for station/object DL9GRB-13. If no packets are shown the sender has not sent any weather packets the latest 1 day(s).
| Time | Temp. | Humidity | Pressure | Rain* | Wind** | Luminosity | Snow |
|---|---|---|---|---|---|---|---|
| 1777956008 | 10° C | 94% | 1010.4 hPa | 0 mm | 7.6 m/s, 8° | 7 W/m² | - |
| 1777955828 | 10° C | 94% | 1010.2 hPa | 0 mm | 0 m/s | 8 W/m² | - |
| 1777955648 | 10° C | 94% | 1010.2 hPa | 0 mm | 2.68 m/s, 71° | 7 W/m² | - |
| 1777955468 | 10° C | 94% | 1010.3 hPa | 0 mm | 1.79 m/s, 140° | 8 W/m² | - |
| 1777955288 | 10° C | 94% | 1010.3 hPa | 0 mm | 2.68 m/s, 41° | 7 W/m² | - |
| 1777955108 | 10° C | 94% | 1010.1 hPa | 0 mm | 8.49 m/s, 348° | 6 W/m² | - |
| 1777954928 | 10° C | 94% | 1010.3 hPa | 0 mm | 5.81 m/s, 189° | 5 W/m² | - |
| 1777954748 | 10° C | 94% | 1010.3 hPa | 0 mm | 2.68 m/s, 26° | 4 W/m² | - |
| 1777954568 | 10° C | 94% | 1010.2 hPa | 0 mm | 1.79 m/s, 72° | 5 W/m² | - |
| 1777954388 | 10° C | 94% | 1010.2 hPa | 0.51 mm | 1.79 m/s, 113° | 5 W/m² | - |
| 1777954208 | 10° C | 94% | 1010.1 hPa | 0.51 mm | 2.24 m/s, 31° | 5 W/m² | - |
| 1777954028 | 10° C | 94% | 1010.2 hPa | 0.51 mm | 2.68 m/s, 112° | 4 W/m² | - |
| 1777953848 | 10° C | 94% | 1010 hPa | 0 mm | 2.24 m/s, 273° | 4 W/m² | - |
| 1777953668 | 10° C | 94% | 1010 hPa | 0 mm | 4.92 m/s, 39° | 4 W/m² | - |
| 1777953488 | 10° C | 94% | 1010 hPa | 0 mm | 1.79 m/s, 29° | 4 W/m² | - |
| 1777953308 | 10° C | 93% | 1010 hPa | 0 mm | 7.6 m/s, 8° | 3 W/m² | - |
| 1777953128 | 10° C | 93% | 1010.1 hPa | 0 mm | 0 m/s | 2 W/m² | - |
| 1777952948 | 10° C | 93% | 1010.1 hPa | 0 mm | 0 m/s | 2 W/m² | - |
| 1777952768 | 10° C | 93% | 1010.1 hPa | 0 mm | 0 m/s | 1 W/m² | - |
| 1777952588 | 10° C | 93% | 1010.1 hPa | 0.51 mm | 0 m/s | 1 W/m² | - |
| 1777952408 | 10° C | 93% | 1010.1 hPa | 0.51 mm | 0 m/s | 1 W/m² | - |
| 1777952228 | 10° C | 93% | 1009.9 hPa | 0.51 mm | 1.79 m/s, 118° | 1 W/m² | - |
| 1777952048 | 10° C | 93% | 1009.9 hPa | 0.51 mm | 1.79 m/s, 69° | 1 W/m² | - |
| 1777951868 | 10° C | 92% | 1010.3 hPa | 0 mm | 1.79 m/s, 5° | 0 W/m² | - |
| 1777951688 | 10° C | 92% | 1010 hPa | 0 mm | 0 m/s | 1 W/m² | - |
* Rain latest hour (hover to see other rain measurements)
** Current wind speed in m/s (hover to see current wind gust speed)